Location: Planetariul Baia Mare
(47.6578°N, 23.5640°E)
Time: 21:36:11
(UTC+02:00)

ISS - Pass Details

Date: 01 April 2016
Orbit: 417 x 422 km, 51.6° (Epoch: 08 March)

Event Time Altitude Azimuth Distance (km) Brightness Sun altitude
Rises 22:46:53 0° 287° (WNW) 2,444 1.1 -26.5°
Reaches altitude 10° 22:49:26 10° 269° (W) 1,572 -0.3 -26.8°
Enters shadow 22:50:19 14° 257° (WSW) 1,346 -0.9 -26.9°
